Погода в Сане Агустине

Испания     27°46′17″N   15°32′50″W
темп.,
°C
ветер,
м/с
пор.,
м/с
влажн.,
%
обл.,
%
осадки,
мм/ч
давл.,
гПа
погр.,
м
9 декабря, чт
чт900:00+17ссв911731 0.0 1025575
03:00+18ссв697716 0.0 1024601
06:00+17св8108451 0.2 1024644
09:00+18ссв9107327 0.2 1025909
12:00+19св10126930 0.3 10241229
15:00+19ссв10126519 0.1 10221101
18:00+17ссв10127328 0.1 10221076
21:00+17ссв9127625 0.1 1024895
10 декабря, пт
пт1000:00+17ссв10137524 0.1 1023908
03:00+17ссв9127325 0.1 1022885
06:00+17ссв911766 0.1 1021705
09:00+18ссв911720 0.0 1022800
12:00+20св911580 0.0 1022833
15:00+20св1012540 0.0 1020959
18:00+19св1013650 0.0 1021853
21:00+18ссв912720 0.0 1022531
11 декабря, сб
сб1100:00+17ссв911760 0.0 1022420
03:00+17ссв911813 0.0 1021420
06:00+16ссв810824 0.0 1021415
09:00+17св810774 0.0 1022616
12:00+19св89650 0.0 1022694
15:00+20св88641 0.0 1019714
18:00+18ссв89723 0.0 1019543
21:00+18ссв89744 0.0 1020539
12 декабря, вс
вс1200:00+17ссв8107414 0.0 1020541
03:00+17ссв78753 0.0 1019440
06:00+16ссв67803 0.0 1019356
09:00+17ссв67770 0.0 1021392
12:00+20св66620 0.0 1020625
15:00+20всв65600 0.0 1018649
18:00+19св66680 0.0 1019352
21:00+18ссв56720 0.0 1021237
13 декабря, пн
пн1300:00+17ссв66760 0.0 1021241
03:00+17ссв67790 0.0 1020237
06:00+17ссв67790 0.0 1020251
09:00+18ссв67720 0.0 1021283
12:00+20св66570 0.0 1021563
15:00+21св66550 0.0 1019580
18:00+19ссв66693 0.0 1019311
21:00+18ссв677555 0.0 1020252